Location: Camp Creek
(33.9000°N, 111.8167°W)
Time: 21:02:46
(UTC-07:00)

DELTA 2 R/B (1) - Visible Passes

Search period start: 23 November 2017 00:00
Search period end: 03 December 2017 00:00
Orbit: 790 x 803 km, 39.6° (Epoch: 23 November)

Date Brightness Start Highest point End Pass type
(mag) Time Alt. Az. Time Alt. Az. Time Alt. Az.
23 Nov 4.5 04:31:05 43° NE 04:31:05 43° NE 04:35:14 10° E visible
23 Nov 3.6 06:11:51 15° WNW 06:16:27 75° SSW 06:22:01 10° ESE visible
24 Nov 5.5 04:01:59 25° ENE 04:01:59 25° ENE 04:04:20 10° E visible
24 Nov 3.5 05:42:46 30° WNW 05:45:37 80° SSW 05:51:12 10° ESE visible
25 Nov 6.4 03:32:55 13° E 03:32:55 13° E 03:33:27 10° E visible
25 Nov 3.5 05:13:42 60° WNW 05:14:46 85° SSW 05:20:22 10° ESE visible
26 Nov 3.8 04:44:41 68° ESE 04:44:41 68° ESE 04:49:31 10° ESE visible
26 Nov 4.9 06:25:28 10° W 06:29:59 27° SW 06:34:35 10° SSE visible
27 Nov 5.1 04:15:42 33° ESE 04:15:42 33° ESE 04:18:40 10° ESE visible
27 Nov 4.7 05:56:30 20° W 05:59:11 29° SW 06:03:56 10° SSE visible
28 Nov 6.1 03:46:46 16° ESE 03:46:46 16° ESE 03:47:49 10° ESE visible
28 Nov 4.5 05:27:34 31° SW 05:28:22 32° SW 05:33:16 10° SSE visible
29 Nov 4.7 04:58:40 32° S 04:58:40 32° S 05:02:35 10° SSE visible
30 Nov 5.5 04:29:48 21° SSE 04:29:48 21° SSE 04:31:53 10° SSE visible
01 Dec 6.3 04:00:58 11° SE 04:00:58 11° SE 04:01:09 10° SE visible
01 Dec 5.9 20:13:28 10° SSW 20:14:37 16° SSW 20:14:37 16° SSW visible
02 Dec 5.0 19:42:45 10° SSW 19:45:45 26° S 19:45:45 26° S visible
